Powrót do katalogu

ARIANE 5 R/B

AktywnyGTO
NORAD 28904·ROCKET BODY·🇫🇷 France

Wystrzelony Nov 16, 2005 z Guiana Space Centre

Loading…

TLE

Starzejące sięSource: Space-Track

Epoka: Sep 14, 2026, 12:59 UTC

1 28904U 05046C   26257.54142035 -.00000043  00000-0  23493-3 0  9996
2 28904   7.3318  67.1754 7189506  47.4053 354.2038  2.30001351174334

Śledź ARIANE 5 R/B w czasie rzeczywistym z AllMySat

Download on the App Store